LPA4320 LTAC-UGTB

Flight info

Callsign LPA4320
Flight time 1h 26m
Altitude 37000
Route GOBIT UL614 JUPNE UT54 SIV DCT GONPU UN61 NOLGA N61 LAGAS
Aircraft A320/M-SDE3FGHIRWY/LB1

Departure

Time 2026-04-28 20:29
Airport Esenboğa International Airport (LTAC)

Arrival

Time 2026-04-28 21:56
Airport Tbilisi International Airport (UGTB)
Time Latitude Longitude Altitude Speed Heading
2026-04-28 20:04 40.11677 32.99362 3113 ft 0 kts 164°
2026-04-28 20:16 40.11678 32.99362 3113 ft 1 kts 164°
2026-04-28 20:16 40.11685 32.99359 3113 ft 1 kts 164°
2026-04-28 20:16 40.11692 32.99356 3113 ft 1 kts 164°
2026-04-28 20:16 40.11698 32.99354 3113 ft 0 kts 164°
2026-04-28 20:17 40.11706 32.99351 3113 ft 1 kts 164°
2026-04-28 20:17 40.11717 32.99347 3113 ft 2 kts 164°
2026-04-28 20:17 40.11730 32.99343 3113 ft 2 kts 179°
2026-04-28 20:17 40.11744 32.99343 3113 ft 2 kts 198°
2026-04-28 20:18 40.11756 32.99350 3113 ft 2 kts 233°
2026-04-28 20:18 40.11759 32.99355 3113 ft 0 kts 253°
2026-04-28 20:21 40.11756 32.99340 3113 ft 8 kts 253°
2026-04-28 20:21 40.11740 32.99274 3113 ft 8 kts 250°
2026-04-28 20:21 40.11714 32.99197 3113 ft 8 kts 244°
2026-04-28 20:22 40.11691 32.99136 3113 ft 7 kts 242°
2026-04-28 20:22 40.11665 32.99084 3113 ft 9 kts 236°
2026-04-28 20:22 40.11635 32.99028 3113 ft 7 kts 234°
2026-04-28 20:22 40.11603 32.98975 3113 ft 9 kts 230°
2026-04-28 20:23 40.11563 32.98920 3113 ft 9 kts 224°
2026-04-28 20:23 40.11470 32.98818 3113 ft 20 kts 216°
2026-04-28 20:23 40.11371 32.98725 3113 ft 15 kts 216°
2026-04-28 20:23 40.11278 32.98634 3110 ft 15 kts 228°
2026-04-28 20:24 40.11304 32.98525 3109 ft 13 kts 306°
2026-04-28 20:24 40.11355 32.98433 3109 ft 12 kts 306°
2026-04-28 20:24 40.11373 32.98402 3109 ft 0 kts 306°
2026-04-28 20:24 40.11392 32.98368 3109 ft 15 kts 306°
2026-04-28 20:25 40.11457 32.98252 3109 ft 12 kts 306°
2026-04-28 20:25 40.11474 32.98222 3109 ft 0 kts 306°
2026-04-28 20:27 40.11488 32.98197 3109 ft 12 kts 311°
2026-04-28 20:27 40.11588 32.98187 3110 ft 17 kts 30°
2026-04-28 20:27 40.11609 32.98204 3110 ft 0 kts 34°
2026-04-28 20:28 40.11640 32.98233 3110 ft 11 kts 36°
2026-04-28 20:28 40.11743 32.98332 3111 ft 34 kts 36°
2026-04-28 20:29 40.12162 32.98733 3116 ft 117 kts 36°
2026-04-28 20:29 40.13015 32.99549 3171 ft 180 kts 38°
2026-04-28 20:29 40.14012 33.00570 4075 ft 183 kts 39°
2026-04-28 20:29 40.15009 33.01643 5062 ft 186 kts 39°
2026-04-28 20:30 40.16048 33.02746 5464 ft 204 kts 38°
2026-04-28 20:30 40.17220 33.03973 5776 ft 227 kts 38°
2026-04-28 20:30 40.18521 33.05325 6187 ft 249 kts 38°
2026-04-28 20:30 40.19893 33.06769 6885 ft 257 kts 42°
2026-04-28 20:31 40.20864 33.08729 7612 ft 263 kts 76°
2026-04-28 20:31 40.20838 33.11153 8109 ft 280 kts 110°
2026-04-28 20:31 40.19922 33.13447 8740 ft 289 kts 127°
2026-04-28 20:31 40.18662 33.15529 9538 ft 294 kts 133°
2026-04-28 20:32 40.17283 33.17536 10207 ft 305 kts 134°
2026-04-28 20:32 40.15799 33.19668 10484 ft 329 kts 134°
2026-04-28 20:32 40.14256 33.21966 10960 ft 341 kts 132°
2026-04-28 20:32 40.12716 33.24361 11670 ft 347 kts 131°
2026-04-28 20:33 40.11182 33.26832 12408 ft 352 kts 130°
2026-04-28 20:33 40.09648 33.29358 13142 ft 356 kts 129°
2026-04-28 20:33 40.08111 33.31920 13869 ft 361 kts 129°
2026-04-28 20:33 40.06560 33.34518 14506 ft 365 kts 129°
2026-04-28 20:34 40.04994 33.37135 15146 ft 369 kts 129°
2026-04-28 20:34 40.03396 33.39788 15785 ft 372 kts 129°
2026-04-28 20:34 40.01781 33.42456 16419 ft 376 kts 128°
2026-04-28 20:34 40.00208 33.45210 17054 ft 380 kts 126°
2026-04-28 20:35 39.98699 33.48054 17686 ft 384 kts 124°
2026-04-28 20:35 39.97211 33.50971 18333 ft 387 kts 123°
2026-04-28 20:35 39.95727 33.53920 18876 ft 391 kts 123°
2026-04-28 20:35 39.94229 33.56884 19445 ft 394 kts 123°
2026-04-28 20:36 39.92702 33.59870 20004 ft 397 kts 124°
2026-04-28 20:36 39.91152 33.62862 20569 ft 400 kts 124°
2026-04-28 20:36 39.89583 33.65865 21124 ft 403 kts 124°
2026-04-28 20:36 39.87997 33.68893 21696 ft 406 kts 124°
2026-04-28 20:37 39.86400 33.71937 22247 ft 409 kts 124°
2026-04-28 20:37 39.84791 33.75005 22807 ft 412 kts 124°
2026-04-28 20:37 39.83168 33.78106 23324 ft 416 kts 124°
2026-04-28 20:37 39.81534 33.81227 23793 ft 419 kts 124°
2026-04-28 20:38 39.79886 33.84363 24219 ft 422 kts 124°
2026-04-28 20:38 39.78248 33.87557 24650 ft 425 kts 120°
2026-04-28 20:38 39.76954 33.91013 25048 ft 427 kts 110°
2026-04-28 20:38 39.75937 33.94656 25450 ft 430 kts 110°
2026-04-28 20:39 39.74914 33.98319 25857 ft 432 kts 110°
2026-04-28 20:39 39.73875 34.01996 26243 ft 435 kts 110°
2026-04-28 20:39 39.72825 34.05682 26627 ft 437 kts 110°
2026-04-28 20:39 39.71763 34.09402 27002 ft 440 kts 110°
2026-04-28 20:40 39.70695 34.13142 27382 ft 442 kts 110°
2026-04-28 20:40 39.69637 34.16853 27744 ft 445 kts 110°
2026-04-28 20:40 39.68560 34.20631 28110 ft 447 kts 110°
2026-04-28 20:40 39.67481 34.24408 28457 ft 450 kts 111°
2026-04-28 20:41 39.66382 34.28246 28802 ft 452 kts 111°
2026-04-28 20:41 39.65286 34.32070 29137 ft 454 kts 111°
2026-04-28 20:41 39.64210 34.35951 29462 ft 457 kts 107°
2026-04-28 20:41 39.63509 34.39986 29767 ft 460 kts 98°
2026-04-28 20:42 39.63289 34.44134 30068 ft 463 kts 89°
2026-04-28 20:42 39.63545 34.48300 30314 ft 465 kts 82°
2026-04-28 20:42 39.63943 34.52469 30566 ft 467 kts 83°
2026-04-28 20:42 39.64334 34.56660 30808 ft 469 kts 83°
2026-04-28 20:43 39.64716 34.60872 31044 ft 471 kts 83°
2026-04-28 20:43 39.65094 34.65115 31273 ft 473 kts 83°
2026-04-28 20:43 39.65472 34.69354 31518 ft 474 kts 83°
2026-04-28 20:43 39.65851 34.73617 31848 ft 474 kts 83°
2026-04-28 20:44 39.66229 34.77857 32174 ft 473 kts 83°
2026-04-28 20:44 39.66606 34.82090 32488 ft 473 kts 83°
2026-04-28 20:44 39.66986 34.86350 32804 ft 473 kts 83°
2026-04-28 20:44 39.67362 34.90577 33118 ft 472 kts 83°
2026-04-28 20:45 39.67735 34.94813 33431 ft 472 kts 84°
2026-04-28 20:45 39.68104 34.99032 33748 ft 472 kts 84°
2026-04-28 20:45 39.68474 35.03275 34066 ft 471 kts 84°
2026-04-28 20:45 39.68841 35.07492 34324 ft 471 kts 84°
2026-04-28 20:46 39.69211 35.11729 34576 ft 471 kts 84°
2026-04-28 20:46 39.69578 35.15956 34819 ft 471 kts 84°
2026-04-28 20:46 39.69941 35.20183 35056 ft 471 kts 84°
2026-04-28 20:46 39.70304 35.24425 35286 ft 472 kts 84°
2026-04-28 20:47 39.70665 35.28655 35512 ft 472 kts 84°
2026-04-28 20:47 39.71022 35.32891 35736 ft 472 kts 84°
2026-04-28 20:47 39.71380 35.37135 35945 ft 472 kts 84°
2026-04-28 20:47 39.71738 35.41369 36166 ft 472 kts 84°
2026-04-28 20:48 39.72094 35.45602 36371 ft 472 kts 84°
2026-04-28 20:48 39.72448 35.49843 36580 ft 472 kts 84°
2026-04-28 20:48 39.72798 35.54077 36786 ft 472 kts 84°
2026-04-28 20:48 39.73147 35.58327 36978 ft 472 kts 84°
2026-04-28 20:49 39.73491 35.62569 37044 ft 472 kts 84°
2026-04-28 20:49 39.74175 35.71026 37050 ft 471 kts 84°
2026-04-28 20:50 39.74858 35.79497 37056 ft 471 kts 84°
2026-04-28 20:50 39.75422 35.86527 37062 ft 471 kts 84°
2026-04-28 20:51 39.76095 35.94992 37070 ft 471 kts 84°
2026-04-28 20:51 39.76762 36.03477 37068 ft 471 kts 84°
2026-04-28 20:52 39.77421 36.11957 37072 ft 471 kts 85°
2026-04-28 20:52 39.78065 36.20448 37071 ft 472 kts 85°
2026-04-28 20:53 39.78646 36.33210 37072 ft 471 kts 90°
2026-04-28 20:53 39.78628 36.41736 37074 ft 471 kts 91°
2026-04-28 20:54 39.78616 36.50273 37086 ft 471 kts 90°
2026-04-28 20:54 39.78692 36.58797 37094 ft 472 kts 90°
2026-04-28 20:55 39.78788 36.67312 37103 ft 472 kts 90°
2026-04-28 20:55 39.78865 36.75856 37109 ft 472 kts 90°
2026-04-28 20:56 39.78932 36.84388 37117 ft 472 kts 88°
2026-04-28 20:56 39.80105 36.92701 37114 ft 472 kts 70°
2026-04-28 20:57 39.82628 37.00585 37117 ft 472 kts 66°
2026-04-28 20:57 39.85188 37.08448 37101 ft 472 kts 67°
2026-04-28 20:58 39.87739 37.16338 37093 ft 473 kts 67°
2026-04-28 20:58 39.90292 37.24227 37081 ft 473 kts 67°
2026-04-28 20:59 39.92845 37.32129 37069 ft 473 kts 67°
2026-04-28 20:59 39.95396 37.40042 37066 ft 473 kts 67°
2026-04-28 21:00 39.97932 37.47970 37064 ft 474 kts 67°
2026-04-28 21:00 40.00463 37.55905 37066 ft 474 kts 67°
2026-04-28 21:01 40.02992 37.63839 37067 ft 474 kts 67°
2026-04-28 21:01 40.05520 37.71781 37054 ft 474 kts 67°
2026-04-28 21:02 40.08046 37.79739 37056 ft 474 kts 68°
2026-04-28 21:02 40.10566 37.87696 37061 ft 474 kts 68°
2026-04-28 21:03 40.13078 37.95663 37059 ft 474 kts 68°
2026-04-28 21:03 40.15582 38.03634 37061 ft 474 kts 68°
2026-04-28 21:04 40.18086 38.11606 37067 ft 474 kts 68°
2026-04-28 21:04 40.20581 38.19587 37062 ft 474 kts 68°
2026-04-28 21:05 40.23066 38.27579 37069 ft 474 kts 68°
2026-04-28 21:05 40.25556 38.35581 37065 ft 474 kts 68°
2026-04-28 21:06 40.28035 38.43581 37064 ft 474 kts 68°
2026-04-28 21:06 40.30511 38.51605 37063 ft 475 kts 68°
2026-04-28 21:07 40.32973 38.59622 37058 ft 474 kts 68°
2026-04-28 21:07 40.35436 38.67645 37062 ft 474 kts 68°
2026-04-28 21:08 40.37898 38.75679 37063 ft 475 kts 68°
2026-04-28 21:08 40.40356 38.83718 37064 ft 475 kts 68°
2026-04-28 21:09 40.42800 38.91759 37065 ft 475 kts 69°
2026-04-28 21:09 40.45242 38.99809 37066 ft 475 kts 69°
2026-04-28 21:10 40.47681 39.07864 37067 ft 474 kts 69°
2026-04-28 21:10 40.50111 39.15926 37071 ft 475 kts 69°
2026-04-28 21:11 40.52530 39.23995 37071 ft 474 kts 69°
2026-04-28 21:11 40.54951 39.32068 37082 ft 475 kts 69°
2026-04-28 21:12 40.57365 39.40151 37082 ft 475 kts 69°
2026-04-28 21:12 40.59775 39.48242 37093 ft 475 kts 69°
2026-04-28 21:13 40.62185 39.56340 37097 ft 475 kts 69°
2026-04-28 21:13 40.64586 39.64446 37098 ft 475 kts 69°
2026-04-28 21:14 40.66986 39.72561 37106 ft 475 kts 69°
2026-04-28 21:14 40.69370 39.80680 37112 ft 475 kts 69°
2026-04-28 21:15 40.71748 39.88807 37118 ft 475 kts 69°
2026-04-28 21:15 40.74130 39.96926 37120 ft 475 kts 70°
2026-04-28 21:16 40.76508 40.05073 37127 ft 475 kts 70°
2026-04-28 21:16 40.78863 40.13206 37127 ft 475 kts 70°
2026-04-28 21:17 40.81215 40.21352 37121 ft 475 kts 70°
2026-04-28 21:17 40.83572 40.29510 37117 ft 475 kts 70°
2026-04-28 21:18 40.85923 40.37667 37131 ft 475 kts 70°
2026-04-28 21:18 40.88262 40.45835 37131 ft 475 kts 70°
2026-04-28 21:19 40.90602 40.54007 37134 ft 475 kts 70°
2026-04-28 21:19 40.92935 40.62181 37133 ft 475 kts 70°
2026-04-28 21:20 40.95262 40.70370 37136 ft 475 kts 70°
2026-04-28 21:20 40.97578 40.78558 37139 ft 475 kts 70°
2026-04-28 21:21 40.99890 40.86754 37142 ft 475 kts 70°
2026-04-28 21:21 41.02202 40.94957 37138 ft 476 kts 70°
2026-04-28 21:22 41.04515 41.03172 37135 ft 476 kts 70°
2026-04-28 21:22 41.06443 41.10056 37132 ft 476 kts 71°
2026-04-28 21:23 41.09105 41.19618 37130 ft 476 kts 71°
2026-04-28 21:23 41.11395 41.27856 37120 ft 476 kts 71°
2026-04-28 21:24 41.13679 41.36094 37124 ft 476 kts 71°
2026-04-28 21:24 41.15965 41.44344 37127 ft 476 kts 71°
2026-04-28 21:25 41.18232 41.52593 37135 ft 476 kts 71°
2026-04-28 21:25 41.20487 41.60842 37134 ft 476 kts 71°
2026-04-28 21:26 41.22745 41.69107 37135 ft 475 kts 71°
2026-04-28 21:26 41.24614 41.75971 37133 ft 475 kts 71°
2026-04-28 21:27 41.26858 41.84246 37131 ft 475 kts 71°
2026-04-28 21:27 41.29099 41.92517 37140 ft 475 kts 71°
2026-04-28 21:28 41.30700 42.01002 37136 ft 472 kts 82°
2026-04-28 21:28 41.31800 42.09619 37124 ft 472 kts 82°
2026-04-28 21:29 41.32912 42.18233 37110 ft 473 kts 82°
2026-04-28 21:29 41.34017 42.26855 37102 ft 473 kts 83°
2026-04-28 21:30 41.35112 42.35484 37093 ft 473 kts 83°
2026-04-28 21:30 41.36196 42.44116 37099 ft 473 kts 83°
2026-04-28 21:31 41.37269 42.52643 37085 ft 455 kts 83°
2026-04-28 21:31 41.37785 42.56749 37092 ft 444 kts 83°
2026-04-28 21:31 41.38286 42.60783 37011 ft 440 kts 83°
2026-04-28 21:32 41.38780 42.64798 36549 ft 438 kts 83°
2026-04-28 21:32 41.39269 42.68789 36030 ft 437 kts 83°
2026-04-28 21:32 41.39758 42.72780 35491 ft 436 kts 83°
2026-04-28 21:32 41.40248 42.76766 34962 ft 436 kts 83°
2026-04-28 21:33 41.40740 42.80752 34512 ft 434 kts 83°
2026-04-28 21:33 41.41224 42.84697 34114 ft 430 kts 83°
2026-04-28 21:33 41.41697 42.88607 33667 ft 426 kts 83°
2026-04-28 21:33 41.42162 42.92491 33228 ft 422 kts 83°
2026-04-28 21:34 41.42624 42.96349 32774 ft 419 kts 83°
2026-04-28 21:34 41.43083 43.00167 32349 ft 415 kts 83°
2026-04-28 21:34 41.43540 43.03958 31937 ft 412 kts 83°
2026-04-28 21:34 41.43987 43.07662 31528 ft 409 kts 83°
2026-04-28 21:35 41.44448 43.11500 30549 ft 421 kts 83°
2026-04-28 21:35 41.44909 43.15375 29804 ft 424 kts 83°
2026-04-28 21:35 41.45363 43.19207 29213 ft 422 kts 83°
2026-04-28 21:35 41.45815 43.23048 28682 ft 419 kts 83°
2026-04-28 21:36 41.46265 43.26879 28165 ft 416 kts 83°
2026-04-28 21:36 41.46709 43.30674 27658 ft 412 kts 83°
2026-04-28 21:36 41.47151 43.34433 27195 ft 409 kts 83°
2026-04-28 21:36 41.47591 43.38160 26731 ft 406 kts 83°
2026-04-28 21:37 41.48026 43.41860 26272 ft 403 kts 82°
2026-04-28 21:37 41.48457 43.45546 25824 ft 400 kts 83°
2026-04-28 21:37 41.48882 43.49200 25384 ft 397 kts 82°
2026-04-28 21:37 41.49303 43.52818 24948 ft 394 kts 82°
2026-04-28 21:38 41.49717 43.56415 24514 ft 391 kts 82°
2026-04-28 21:38 41.50126 43.59982 24092 ft 388 kts 82°
2026-04-28 21:38 41.50531 43.63535 23665 ft 385 kts 82°
2026-04-28 21:38 41.50933 43.67053 23186 ft 382 kts 82°
2026-04-28 21:39 41.51330 43.70531 22737 ft 379 kts 82°
2026-04-28 21:39 41.51726 43.73996 22297 ft 375 kts 82°
2026-04-28 21:39 41.52117 43.77428 21864 ft 372 kts 82°
2026-04-28 21:39 41.52501 43.80826 21435 ft 368 kts 82°
2026-04-28 21:40 41.52880 43.84187 21024 ft 365 kts 82°
2026-04-28 21:40 41.53256 43.87530 20600 ft 362 kts 82°
2026-04-28 21:40 41.53627 43.90844 20183 ft 360 kts 82°
2026-04-28 21:40 41.53996 43.94139 19775 ft 357 kts 82°
2026-04-28 21:41 41.54359 43.97405 19387 ft 354 kts 82°
2026-04-28 21:41 41.54719 44.00645 19012 ft 351 kts 82°
2026-04-28 21:41 41.55076 44.03863 18640 ft 349 kts 82°
2026-04-28 21:41 41.55431 44.07051 18245 ft 346 kts 82°
2026-04-28 21:42 41.55780 44.10222 17826 ft 343 kts 82°
2026-04-28 21:42 41.56125 44.13366 17418 ft 341 kts 82°
2026-04-28 21:42 41.56467 44.16482 17024 ft 338 kts 82°
2026-04-28 21:42 41.56949 44.19533 16628 ft 336 kts 72°
2026-04-28 21:43 41.57933 44.22361 16256 ft 334 kts 58°
2026-04-28 21:43 41.59348 44.24762 15888 ft 333 kts 45°
2026-04-28 21:43 41.61137 44.26689 15514 ft 330 kts 34°
2026-04-28 21:43 41.63042 44.28400 15137 ft 329 kts 34°
2026-04-28 21:44 41.64929 44.30106 14774 ft 327 kts 34°
2026-04-28 21:44 41.66804 44.31805 14413 ft 325 kts 34°
2026-04-28 21:44 41.68670 44.33498 14044 ft 323 kts 34°
2026-04-28 21:44 41.70525 44.35182 13671 ft 321 kts 34°
2026-04-28 21:45 41.72363 44.36853 13266 ft 319 kts 34°
2026-04-28 21:45 41.74191 44.38515 12875 ft 317 kts 34°
2026-04-28 21:45 41.76008 44.40163 12483 ft 315 kts 35°
2026-04-28 21:45 41.77815 44.41802 12101 ft 313 kts 35°
2026-04-28 21:46 41.79612 44.43435 11728 ft 311 kts 35°
2026-04-28 21:46 41.81392 44.45056 11350 ft 308 kts 35°
2026-04-28 21:46 41.83154 44.46680 10972 ft 306 kts 39°
2026-04-28 21:46 41.84186 44.47881 10733 ft 303 kts 47°
2026-04-28 21:47 41.85415 44.49704 10390 ft 301 kts 49°
2026-04-28 21:47 41.86839 44.51748 10028 ft 299 kts 47°
2026-04-28 21:47 41.88267 44.53718 9836 ft 290 kts 47°
2026-04-28 21:47 41.89671 44.55633 9565 ft 284 kts 47°
2026-04-28 21:48 41.91014 44.57513 9422 ft 273 kts 53°
2026-04-28 21:48 41.91838 44.59701 9299 ft 258 kts 79°
2026-04-28 21:48 41.91878 44.61968 9293 ft 231 kts 103°
2026-04-28 21:48 41.91322 44.63863 9296 ft 215 kts 123°
2026-04-28 21:49 41.90347 44.65336 9349 ft 212 kts 136°
2026-04-28 21:49 41.89285 44.66680 9018 ft 211 kts 136°
2026-04-28 21:49 41.88214 44.68045 8558 ft 212 kts 136°
2026-04-28 21:49 41.87151 44.69402 8139 ft 211 kts 136°
2026-04-28 21:50 41.86087 44.70759 7767 ft 210 kts 136°
2026-04-28 21:50 41.85035 44.72102 7381 ft 208 kts 136°
2026-04-28 21:50 41.83988 44.73434 6993 ft 207 kts 136°
2026-04-28 21:50 41.82949 44.74756 6561 ft 204 kts 136°
2026-04-28 21:51 41.81926 44.76058 5962 ft 202 kts 136°
2026-04-28 21:51 41.80906 44.77356 5378 ft 202 kts 136°
2026-04-28 21:51 41.79920 44.78611 5205 ft 185 kts 136°
2026-04-28 21:51 41.79043 44.79727 5115 ft 165 kts 136°
2026-04-28 21:52 41.78259 44.80723 4950 ft 147 kts 136°
2026-04-28 21:52 41.77541 44.81637 4732 ft 140 kts 136°
2026-04-28 21:52 41.76838 44.82529 4526 ft 138 kts 136°
2026-04-28 21:52 41.76143 44.83412 4306 ft 137 kts 136°
2026-04-28 21:53 41.75452 44.84290 4085 ft 137 kts 135°
2026-04-28 21:53 41.74761 44.85166 3880 ft 137 kts 136°
2026-04-28 21:53 41.74070 44.86042 3657 ft 137 kts 136°
2026-04-28 21:53 41.73384 44.86913 3444 ft 135 kts 136°
2026-04-28 21:54 41.72703 44.87776 3214 ft 136 kts 136°
2026-04-28 21:54 41.72014 44.88649 2977 ft 136 kts 136°
2026-04-28 21:54 41.71336 44.89507 2759 ft 136 kts 136°
2026-04-28 21:54 41.70643 44.90386 2521 ft 135 kts 136°
2026-04-28 21:55 41.69960 44.91250 2311 ft 134 kts 136°
2026-04-28 21:55 41.69289 44.92102 2097 ft 133 kts 135°
2026-04-28 21:55 41.68626 44.92955 1875 ft 132 kts 134°
2026-04-28 21:55 41.67964 44.93818 1646 ft 131 kts 135°
2026-04-28 21:56 41.67316 44.94632 1524 ft 108 kts 137°
2026-04-28 21:56 41.66969 44.95041 1523 ft 39 kts 136°
2026-04-28 21:56 41.66898 44.95217 1520 ft 8 kts 54°
2026-04-28 21:56 41.66919 44.95234 1526 ft 4 kts 30°
2026-04-28 21:57 41.66962 44.95277 1524 ft 0 kts 43°
2026-04-28 21:58 41.66998 44.95323 1521 ft 9 kts 44°
2026-04-28 21:58 41.67035 44.95371 1523 ft 9 kts 44°
2026-04-28 21:58 41.67092 44.95444 1523 ft 11 kts 44°
2026-04-28 21:58 41.67145 44.95513 1526 ft 10 kts 44°
2026-04-28 21:59 41.67189 44.95569 1523 ft 7 kts 43°
2026-04-28 21:59 41.67232 44.95629 1522 ft 11 kts 60°
2026-04-28 21:59 41.67201 44.95712 1525 ft 11 kts 134°
2026-04-28 22:00 41.67092 44.95863 1519 ft 12 kts 134°
2026-04-28 22:00 41.67049 44.95963 1524 ft 13 kts 109°
2026-04-28 22:00 41.67078 44.96039 1522 ft 5 kts 43°
2026-04-28 22:00 41.67092 44.96057 1523 ft 0 kts 43°